Location: Goettingen
(51.5300°N, 9.9433°E)
Time: 10:27:14
(UTC+02:00)

ISS - Pass Details

Date: 17 May 2019
Orbit: 407 x 410 km, 51.6° (Epoch: 21 May)

Event Time Altitude Azimuth Distance (km) Brightness Sun altitude
Rises 23:42:17 0° 236° (SW) 2,327 -0.1 -16.1°
Reaches altitude 10° 23:44:25 10° 230° (SW) 1,469 -1.2 -16.2°
Enters shadow 23:45:13 16° 225° (SW) 1,159 -1.7 -16.3°
Exits shadow 23:48:43 31° 105° (ESE) 750 -2.8 -16.5°
Drops below altitude 10° 23:50:45 10° 83° (E) 1,476 -1.1 -16.6°
Sets 23:52:54 0° 77° (ENE) 2,340 0.0 -16.7°
